www.pogodaiklimat.ru

Погода и климат >> Архив погоды >> Норвегия >> Хасвик аэропорт


ПОГОДА в Хасвик аэропорту

  • Прогноз погоды в Хасвик аэропорту
  • Монитор погоды в Хасвик аэропорту

АРХИВ ПОГОДЫ в Хасвик аэропорту

Время (UTC), дата Ветер
(напр.,м/с)
 
Видим.   Явления Облачность Т
(С)
Тd
(С)
f
(%)
Тe
(С)
Тes
(С)
Комфортность P
(гПа)
Po
(гПа)
Тmin
(С)
Tmax
(С)
R
(мм)
R24
(мм)
S
(см)
19 19.03 ЮВ 7
{8}
н/о н/о +1.6 -4.2 65 -5 -5 1007.9 1007.0
20 19.03 В 8
{9}
н/о н/о +1.5 -3.7 68 -5 -5 1007.0 1006.1
21 19.03 В 7
{9}
н/о н/о +1.7 -3.5 68 -5 -5 1005.9 1005.0
22 19.03 В 9
{11}
н/о н/о +1.9 -3.0 70 -5 -5 1004.9 1004.0
23 19.03 В 8
{11}
н/о н/о +1.8 -2.7 72 -5 -5 1003.9 1003.0
00 20.03 В 8
{11}
н/о н/о +0.6 -4.6 68 -6 -6 1002.6 1001.8
01 20.03 ЮВ 9
{12}
н/о н/о +2.9 -4.7 57 -3 -3 1001.2 1000.4
02 20.03 ЮВ 10
{13}
н/о н/о +2.9 -5.2 55 -4 -4 999.8 999.0
03 20.03 ЮВ 9
{13}
н/о н/о +2.7 -5.6 54 -4 -4 998.5 997.6
04 20.03 В 7
{11}
н/о н/о +2.8 -5.8 53 -3 -3 997.3 996.5
05 20.03 В 7
{11}
н/о н/о +1.8 -3.8 66 -4 -4 996.5 995.7
06 20.03 В 6
{13}
н/о н/о +1.3 -3.5 70 -5 -5 996.1 995.3 +0.4 +3.2
07 20.03 В 6
{9}
н/о н/о +1.7 -5.0 61 -4 -4 996.1 995.3
08 20.03 В 6
{8}
н/о н/о +1.8 -4.5 63 -4 -4 996.4 995.5
09 20.03 В 7
{9}
н/о н/о +1.3 -4.5 65 -5 -5 996.7 995.8
10 20.03 ЮВ 6
{9}
н/о н/о +1.3 -2.8 74 -5 -5 997.1 996.3
11 20.03 В 6
{9}
н/о н/о 0.0 -0.6 96 -7 -7 997.4 996.5
12 20.03 ЮВ 6
{9}
н/о н/о +0.1 -0.2 98 -7 -7 997.7 996.8
13 20.03 ЮВ 5
{7}
н/о н/о +0.7 +0.3 97 -5 -5 997.9 997.1
14 20.03 ЮВ 4
{6}
н/о н/о +1.1 +0.1 93 -4 -4 998.2 997.3
15 20.03 Ю 3
{6}
н/о н/о +1.4 -0.5 87 -3 -3 998.4 997.5
16 20.03 Ю 2
{4}
н/о н/о +2.0 -0.9 81 -1 -1 998.7 997.9
17 20.03 Ю 1
{4}
н/о н/о +1.1 -0.7 88 -1 -1 999.0 998.2
18 20.03 З 4
{8}
н/о н/о +4.1 -1.7 66 0 0 999.1 998.2 -0.1 +4.6
19 20.03 Ю 1
{4}
н/о н/о +2.7 -1.4 74 +1 +1 999.0 998.2
20 20.03 Ю 2
{3}
н/о н/о +2.8 -1.2 75 -0 -0 998.8 997.9
21 20.03 Ю 2
{4}
н/о н/о +0.9 -1.8 82 -3 -3 998.9 998.0
22 20.03 Ю 4
{5}
н/о н/о +1.8 -1.6 78 -3 -3 998.7 997.8
23 20.03 ЮВ 3
{6}
н/о н/о +2.6 -1.5 74 -1 -1 998.7 997.9
00 21.03 ЮВ 4
{7}
н/о н/о +2.9 -1.6 72 -2 -2 998.7 997.8
01 21.03 Ю 3
{8}
н/о н/о +2.8 -1.9 71 -1 -1 998.8 997.9
02 21.03 Ю 2
{4}
н/о н/о +2.7 -1.6 73 -0 -0 998.4 997.5
03 21.03 Ю 3
{5}
н/о н/о +3.1 -2.4 67 -1 -1 998.2 997.3
04 21.03 З 11
{15}
н/о н/о +1.6 -1.3 81 -6 -6 998.8 998.0
05 21.03 З 1
{15}
н/о н/о +1.8 +0.8 93 -0 -0 998.2 997.3
06 21.03 З 4
{15}
н/о н/о +2.8 -1.0 76 -2 -2 997.9 997.1 +0.2 +4.0
07 21.03 ЮЗ 2
{10}
н/о н/о +2.3 -0.8 80 -1 -1 997.8 997.0
08 21.03 ЮЗ 5
{8}
н/о н/о +3.0 -3.1 64 -2 -2 997.7 996.9
09 21.03 ЮЗ 4
{7}
н/о н/о +3.4 -3.6 60 -1 -1 997.2 996.3
10 21.03 ЮЗ 4
{6}
н/о н/о +3.8 -3.4 59 -0 -0 996.8 995.9
11 21.03 ЮЗ 4
{6}
н/о н/о +4.4 -4.1 54 +1 +1 996.5 995.6
12 21.03 ЮЗ 3
{10}
н/о н/о +4.2 -3.5 57 +1 +1 995.7 994.8
13 21.03 Ю 2
{5}
н/о н/о +3.4 -2.7 64 +1 +1 995.0 994.1
14 21.03 Ю 3
{5}
н/о н/о +2.7 -3.4 64 -1 -1 994.4 993.5
15 21.03 В 4
{6}
н/о н/о +2.3 -3.4 66 -2 -2 994.1 993.3
17 21.03 ЮВ 2
{3}
н/о н/о +0.6 -4.2 70 -3 -3 996.1 995.2
18 21.03 З 2
{6}
н/о н/о +1.4 -3.6 69 -2 -2 997.0 996.2 -1.0 +5.2
19 21.03 З 13
{20}
н/о н/о +0.4 +0.4 100 -9 -9 999.7 998.8
20 21.03 СЗ 14
{23}
н/о н/о +1.8 -0.8 83 -7 -7 1001.5 1000.7
21 21.03 З 15
{21}
н/о н/о +1.7 -5.6 58 -7 -7 1003.1 1002.2
22 21.03 З 11
{23}
н/о н/о +0.7 -3.4 74 -7 -7 1003.9 1003.0
23 21.03 З 13
{21}
н/о н/о -0.1 -1.1 93 -9 -9 1004.8 1003.9
01 22.03 З 14
{19}
н/о н/о +1.2 -3.1 73 -7 -7 1005.7 1004.8
02 22.03 З 12
{22}
н/о н/о +1.0 -1.9 81 -7 -7 1006.0 1005.1
03 22.03 З 10
{18}
н/о н/о +1.2 -2.0 79 -6 -6 1006.1 1005.3
04 22.03 З 11
{24}
н/о н/о +0.6 +0.2 97 -8 -8 1007.0 1006.1
05 22.03 З 10
{22}
н/о н/о +1.1 -0.7 88 -7 -7 1007.3 1006.4
06 22.03 З 12
{24}
н/о н/о +1.2 -1.4 83 -7 -7 1007.5 1006.6 -0.5 +3.6
07 22.03 З 12
{17}
н/о н/о +1.9 -1.9 76 -6 -6 1007.7 1006.8
08 22.03 З 15
{21}
н/о н/о +2.1 -5.5 57 -6 -6 1008.8 1007.9
09 22.03 З 15
{23}
н/о н/о +2.0 -6.5 53 -6 -6 1009.3 1008.4
10 22.03 З 12
{20}
н/о н/о +1.5 -4.3 65 -6 -6 1009.7 1008.8
11 22.03 З 11
{21}
н/о н/о +1.2 -4.0 68 -7 -7 1009.7 1008.8
12 22.03 З 12
{23}
н/о н/о +2.6 -6.0 53 -5 -5 1009.0 1008.2
13 22.03 З 9
{17}
н/о н/о +2.7 -4.9 57 -4 -4 1008.6 1007.7
14 22.03 ЮЗ 6
{11}
н/о н/о +2.3 -4.4 61 -3 -3 1008.3 1007.4
15 22.03 З 5
{13}
н/о н/о +0.5 +0.2 98 -6 -6 1007.7 1006.9
16 22.03 ЮЗ 3
{7}
н/о н/о +2.0 -3.3 68 -2 -2 1006.1 1005.2
17 22.03 Ю 4
{7}
н/о н/о +1.9 -5.0 60 -3 -3 1004.2 1003.3
18 22.03 Ю 4
{17}
н/о н/о +1.7 -4.6 63 -3 -3 1002.5 1001.6 +0.3 +3.0
19 22.03 ЮВ 5
{9}
н/о н/о +2.3 -4.8 59 -3 -3 999.8 998.9
20 22.03 ЮВ 7
{10}
н/о н/о +2.5 -4.7 59 -3 -3 997.7 996.8
21 22.03 ЮВ 6
{11}
н/о н/о +2.5 -4.9 58 -3 -3 995.6 994.7
22 22.03 Ю 7
{11}
н/о н/о +2.2 -2.9 69 -4 -4 993.7 992.8
23 22.03 ЮВ 7
{10}
н/о н/о +2.7 -2.2 70 -3 -3 991.7 990.9
00 23.03 Ю 7
{11}
н/о н/о +2.8 -1.7 72 -3 -3 990.3 989.4
01 23.03 ЮВ 7
{10}
н/о н/о +2.8 -0.1 81 -3 -3 989.2 988.4
02 23.03 В 4
{8}
н/о н/о +2.9 +0.3 83 -2 -2 988.0 987.2
03 23.03 В 3
{5}
н/о н/о +2.9 0.0 81 -1 -1 986.8 986.0
04 23.03 В 4
{6}
н/о н/о +4.1 +0.1 75 -0 -0 986.1 985.3
05 23.03 В 5
{9}
н/о н/о +3.9 -0.5 73 -1 -1 985.1 984.3
06 23.03 ЮВ 4
{10}
н/о н/о +4.6 -0.8 68 +1 +1 984.3 983.4 +1.5 +5.2
07 23.03 ЮВ 5
{7}
н/о н/о +5.6 -1.3 61 +2 +2 983.4 982.6
08 23.03 Ю 7
{9}
н/о н/о +4.5 -1.7 64 -1 -1 982.4 981.6
09 23.03 ЮВ 3
{9}
н/о н/о +4.8 -1.2 65 +2 +2 981.9 981.1
10 23.03 З 1
{9}
н/о н/о +4.3 +0.3 75 +3 +3 981.6 980.8
11 23.03 СЗ 4
{5}
н/о н/о +3.6 +1.8 88 -1 -1 981.1 980.3
12 23.03 СЗ 5
{9}
н/о н/о +3.5 +0.7 82 -2 -2 980.9 980.1
13 23.03 З 2
{6}
н/о н/о +3.6 +0.5 80 +1 +1 980.6 979.7
14 23.03 штиль 0
{4}
н/о н/о +4.0 0.0 75 +3 +3 979.9 979.1
15 23.03 В 4
{6}
н/о н/о +3.3 +0.7 83 -1 -1 978.9 978.1
16 23.03 В 5
{6}
н/о н/о +3.4 +0.5 81 -2 -2 978.2 977.3
17 23.03 В 5
{7}
н/о н/о +2.9 -1.1 75 -2 -2 977.6 976.7
18 23.03 В 5
{8}
н/о н/о +2.8 -0.8 77 -2 -2 977.2 976.4 +2.6 +5.8
19 23.03 В 6
{9}
н/о н/о +2.8 -1.5 73 -3 -3 976.5 975.6
20 23.03 В 5
{7}
н/о н/о +2.8 -2.1 70 -2 -2 975.8 975.0
21 23.03 В 5
{8}
н/о н/о +2.7 -3.0 66 -2 -2 975.2 974.4
22 23.03 В 5
{7}
н/о н/о +1.7 -3.3 69 -4 -4 974.7 973.8
23 23.03 В 6
{9}
н/о н/о +1.8 -2.9 71 -4 -4 974.7 973.9
00 24.03 В 4
{9}
н/о н/о +1.1 -4.3 67 -4 -4 974.9 974.0
01 24.03 В 2
{7}
н/о н/о +0.7 -4.9 66 -2 -2 975.5 974.6
02 24.03 штиль 0
{2}
н/о н/о -2.0 -4.8 81 -3 -3 976.2 975.3
03 24.03 штиль 0
{1}
н/о н/о -3.2 -5.8 82 -4 -4 977.0 976.1
04 24.03 штиль 0
{2}
н/о н/о -2.8 -5.0 85 -4 -4 978.0 977.1
05 24.03 штиль 0
{1}
н/о н/о -0.3 -1.7 90 -2 -2 978.9 978.1
06 24.03 З 5
{7}
н/о н/о +2.9 -1.3 74 -2 -2 979.6 978.8 -3.8 +3.3
07 24.03 СЗ 3
{7}
н/о н/о +1.9 -0.8 82 -2 -2 980.8 979.9
08 24.03 СЗ 2
{4}
н/о н/о +3.5 -0.9 73 +1 +1 982.0 981.2
09 24.03 З 2
{3}
н/о н/о +3.8 -1.1 70 +1 +1 983.1 982.2
10 24.03 З 9
{11}
н/о н/о +3.0 +2.4 96 -4 -4 984.2 983.3
11 24.03 З 9
{12}
н/о н/о +2.0 +1.9 99 -6 -6 985.5 984.7
12 24.03 С 4
{12}
н/о н/о +1.0 +1.0 100 -5 -5 986.7 985.8
13 24.03 С 7
{12}
н/о н/о +1.3 +0.7 96 -6 -6 988.3 987.5
14 24.03 С 7
{15}
н/о н/о +0.7 +0.4 98 -6 -6 990.3 989.4
15 24.03 СЗ 7
{14}
н/о н/о +1.6 -2.3 75 -5 -5 991.6 990.8
16 24.03 С 4
{14}
н/о н/о +1.1 -3.2 73 -4 -4 992.9 992.1
17 24.03 С 4
{10}
н/о н/о +0.5 -3.6 74 -5 -5 994.2 993.3
18 24.03 С 8
{17}
н/о н/о -0.2 -3.5 78 -8 -8 995.6 994.7 -0.8 +4.2
19 24.03 С 5
{17}
н/о н/о 0.0 -5.3 67 -6 -6 996.7 995.9
20 24.03 С 5
{12}
н/о н/о -0.7 -4.9 73 -7 -7 998.0 997.1
21 24.03 С 5
{11}
н/о н/о -1.4 -5.3 75 -8 -8 999.5 998.6
22 24.03 С 4
{9}
н/о н/о -1.2 -6.5 67 -7 -7 1000.5 999.6
23 24.03 С 2
{8}
н/о н/о -1.4 -6.8 67 -5 -5 1001.1 1000.2
00 25.03 С 1
{17}
н/о н/о -1.1 -9.2 54 -3 -3 1001.5 1000.6
01 25.03 штиль 0
{6}
н/о н/о -2.2 -8.5 62 -3 -3 1001.9 1001.1
02 25.03 СВ 1
{2}
н/о н/о -2.5 -8.3 64 -4 -4 1002.1 1001.2
03 25.03 З 6
{8}
н/о н/о -0.6 -9.2 52 -7 -7 1002.4 1001.5
04 25.03 З 5
{8}
н/о н/о -0.1 -8.0 55 -6 -6 1002.6 1001.7
05 25.03 З 6
{9}
н/о н/о -0.3 -9.1 51 -6 -6 1002.6 1001.7
06 25.03 З 5
{9}
н/о н/о +0.1 -9.8 47 -5 -5 1002.3 1001.5 -3.0 +0.2
07 25.03 ЮЗ 5
{7}
н/о н/о +0.1 -7.6 56 -5 -5 1002.4 1001.6
08 25.03 З 4
{8}
н/о н/о +0.1 -7.1 58 -5 -5 1002.4 1001.5
09 25.03 ЮЗ 4
{7}
н/о н/о +0.6 -7.4 55 -4 -4 1002.2 1001.3
10 25.03 З 5
{7}
н/о н/о +0.3 -7.6 55 -5 -5 1002.1 1001.3
11 25.03 ЮЗ 4
{8}
н/о н/о +0.9 -7.3 54 -4 -4 1001.8 1001.0
12 25.03 З 4
{9}
н/о н/о +0.1 -5.1 68 -5 -5 1002.0 1001.1
13 25.03 СЗ 8
{11}
н/о н/о -1.7 -1.7 100 -10 -10 1002.7 1001.8
14 25.03 С 3
{10}
н/о н/о -1.4 -1.6 99 -7 -7 1002.8 1001.9
15 25.03 С 4
{10}
н/о н/о -1.3 -1.8 96 -7 -7 1003.2 1002.3
16 25.03 СЗ 10
{12}
н/о н/о -0.1 -3.7 77 -8 -8 1003.3 1002.4
17 25.03 С 4
{11}
н/о н/о -0.3 -3.3 80 -6 -6 1003.6 1002.7
18 25.03 СЗ 8
{14}
н/о н/о -1.0 -4.1 79 -9 -9 1004.3 1003.4 -1.8 +1.2
19 25.03 СЗ 7
{9}
н/о н/о -0.4 -5.2 70 -7 -7 1004.7 1003.8
20 25.03 СЗ 4
{11}
н/о н/о -1.1 -3.8 82 -7 -7 1005.3 1004.4
21 25.03 З 6
{9}
н/о н/о -0.7 -5.8 68 -7 -7 1005.5 1004.6
22 25.03 СЗ 9
{14}
н/о н/о -2.3 -2.3 100 -11 -11 1006.1 1005.2
23 25.03 СЗ 8
{12}
н/о н/о -0.5 -3.0 83 -8 -8 1006.1 1005.2
00 26.03 С 3
{14}
н/о н/о -1.9 -4.8 81 -7 -7 1006.8 1005.9
01 26.03 СЗ 5
{10}
н/о н/о -1.0 -3.2 85 -7 -7 1007.0 1006.1
02 26.03 СЗ 7
{11}
н/о н/о -0.1 -4.4 73 -7 -7 1007.3 1006.5
03 26.03 СЗ 9
{14}
н/о н/о 0.0 -3.9 75 -8 -8 1007.9 1007.0
04 26.03 С 7
{11}
н/о н/о -0.9 -4.0 79 -8 -8 1008.6 1007.7
05 26.03 СЗ 6
{11}
н/о н/о -0.3 -4.5 73 -7 -7 1008.5 1007.7
06 26.03 С 3
{14}
н/о н/о -0.9 -3.1 85 -6 -6 1009.3 1008.4 -4.1 +0.6
07 26.03 З 4
{8}
н/о н/о -1.5 -1.9 97 -8 -8 1009.7 1008.8
08 26.03 З 4
{7}
н/о н/о +0.4 -4.6 69 -5 -5 1009.7 1008.8
09 26.03 СЗ 6
{10}
н/о н/о -0.5 -1.8 91 -7 -7 1010.2 1009.3
10 26.03 СЗ 5
{12}
н/о н/о -0.8 -1.9 92 -7 -7 1010.5 1009.6
11 26.03 С 4
{11}
н/о н/о -0.4 -2.1 88 -6 -6 1010.5 1009.6
12 26.03
{12}
н/о н/о -0.1 -3.7 77 1010.5 1009.7
13 26.03 СЗ 3
{7}
н/о н/о +0.2 -3.9 74 -4 -4 1010.6 1009.8
14 26.03 СЗ 3
{6}
н/о н/о +1.0 -3.5 72 -3 -3 1010.4 1009.5
15 26.03 З 2
{7}
н/о н/о -2.4 -4.5 85 -6 -6 1010.5 1009.6
16 26.03 СЗ 4
{8}
н/о н/о -1.4 -1.4 100 -7 -7 1010.2 1009.3
17 26.03 СЗ 3
{8}
н/о н/о -0.7 -2.4 88 -6 -6 1009.7 1008.8
18 26.03 ЮВ 2
{8}
н/о н/о -0.9 -1.1 99 -5 -5 1009.0 1008.1 -3.6 +1.0

 

Местоположение метеостанции Хасвик аэропорт (Норвегия): широта 70.49 долгота 22.15 высота над уровнем моря 6 м.

В архиве по умолчанию представлена погода в Хасвик аэропорту за последнюю неделю. Архивные данные за месяц целиком и за предыдущие месяцы, начиная с января 2011 года, Вы можете получить, выбрав интересующий диапазон дат из раскрывающегося списка и нажав кнопку "Ввод!".


*Определитесь, кто Вы:
робот инопланетянин человек

Внимание! Время в таблицах - всемирное. Для получения местного времени необходимо прибавить поправку, которая равна 1 ч.

Смотрите также архив погоды в соседних городах и на ближайших метеорологических станциях:

Погода на Хасвике (Норвегия) (16 км)
Погода в Рогнсундете (Норвегия) (26 км)
Погода в Хаммерфест аэропорту (Норвегия) (50 км)
Погода в Альта аэропорту (Норвегия) (73 км)
Погода в Сёрхьюсен аэропорту (Норвегия) (90 км)
Погода на Маяке Fruholmen (Норвегия) (95 км)
Погода на Маяке Torsvag (Норвегия) (103 км)
Погода в Суоловуопми-Лулит (Норвегия) (114 км)
Погода в Банаке (Норвегия) (117 км)
Погода в Норднесфьеллете (Норвегия) (121 км)

Пояснения к столбцам:

Ветер - указаны скорость ветра в м/с - средняя за 10 мин, порывы в срок и между сроками (в фигурных скобках) и направление, откуда дует ветер: С - северный, СВ - северо-восточный, В - восточный, ЮВ - юго-восточный, Ю - южный, ЮЗ - юго-западный, З - западный, СЗ - северо-западный.
Видимость - горизонтальная дальность видимости в метрах или километрах. При видимости от 1 до 10 км при отсутствии осадков обычно наблюдается дымка, при ухудшении видимости до 1 км и менее - туман. В сухую погоду видимость может ухудшаться дымом, пылью или мглою.
Явления - указаны атмосферные явления, наблюдавшиеся в срок или в последний час перед сроком; фигурными скобками обозначены явления, наблюдавшиеся между сроками (за 1-3 часа до срока); квадратными скобками обозначены град или гололедные отложения с указанием их диаметра в мм.
Облачность - указаны через наклонную черту общая и нижняя облачность в баллах и высота нижней границы облаков в метрах; квадратными скобками обозначены формы облаков: Ci - перистые, Cs - перисто-слоистые, Cc - перисто-кучевые, Ac - высококучевые, As - высокослоистые, Sc - слоисто-кучевые, Ns - слоисто-дождевые, Cu - кучевые, Cb - кучево-дождевые. Подробнее классификацию облаков см. в Атласе облаков (PDF).
T - Температура воздуха - температура, измеренная на высоте 2 м над землей.
Td - Температура точки росы - температура, при понижении до которой содержащийся в воздухе водяной пар достигнет насыщения.
f - Относительная влажность воздуха - влажноcть воздуха, измеренная на высоте 2 м над землей.
Te - Эффективная температура - температура, которую ощущает одетый по сезону человек в тени. Характеристика душности погоды. При расчете учитывается влияние влажности воздуха и скорости ветра на теплоощущения человека.
Tes - Эффективная температура на солнце - температура, которую ощущает человек, с поправкой на солнечный нагрев. Характеристика знойности погоды. Зависит от высоты солнца над горизонтом, облачности и скорости ветра. Ночью, в пасмурную погоду, а также при ветре 12 м/с и более поправка равна нулю.
P - Атмосферное давление - приведенное к уровню моря атмосферное давление.
Po - Атмосферное давление - измеренное на уровне метеостанции атмосферное давление.
Tmin - Минимальная температура - минимум температуры воздуха на высоте 2 м над землей.
Tmax - Максимальная температура - максимум температуры воздуха на высоте 2 м над землей.
R - Количество осадков - Количество выпавших осадков за период времени, мм. При наведении курсора мыши на число - период времени, за который выпало указанное количество осадков.
R24 - Количество осадков - Количество выпавших осадков за 24 часа, мм.
S - Снежный покров - Высота снежного покрова, см. При наведении курсора мыши на число - состояние снежного покрова и степень покрытия местности в баллах.